Bellingham, Washington, United States (98225)
Lat: 48.76N, Lon: 122.49W
Wx Zone: WAZ503
Local Info
Past Weather Observations for Tuesday, January 27, 2015

NOTE: This archive is for the closest National Weather Service station to Bellingham. Information may differ from the station used for current weather conditions.

Click here for Long-term Archive

Time Weather Temperature Dewpoint Humidity Pressure Winds Precip Visibility
23:53
Overcast
46°F / 8°C 43°F / 6°C 87% 30.27 in
(1025 mb)
S 5.8 mph
(S 9 kph)
- 10SM
22:53
Overcast
46°F / 8°C 43°F / 6°C 87% 30.24 in
(1024 mb)
S 4.6 mph
(S 7 kph)
- 10SM
22:10
Mostly Cloudy
46°F / 8°C 41°F / 5°C 82% 30.24 in
(1024 mb)
Calm - 10SM
21:53
Partly Cloudy
46°F / 8°C 41°F / 5°C 82% 30.24 in
(1024 mb)
SSE 4.6 mph
(SSE 7 kph)
- 10SM
20:53
Partly Cloudy
46°F / 8°C 43°F / 6°C 87% 30.21 in
(1023 mb)
S 5.8 mph
(S 9 kph)
- 10SM
20:48
Partly Cloudy
46°F / 8°C 43°F / 6°C 87% 30.18 in
(1022 mb)
S 8.1 mph
(S 13 kph)
- 10SM
19:53
Overcast
48°F / 9°C 45°F / 7°C 87% 30.18 in
(1022 mb)
S 6.9 mph
(S 11 kph)
- 10SM
18:53
Overcast
48°F / 9°C 45°F / 7°C 87% 30.15 in
(1021 mb)
S 5.8 mph
(S 9 kph)
- 10SM
18:12
Overcast
48°F / 9°C 45°F / 7°C 87% 30.15 in
(1021 mb)
S 4.6 mph
(S 7 kph)
- 10SM
17:53
Overcast
50°F / 10°C 45°F / 7°C 82% 30.15 in
(1021 mb)
S 6.9 mph
(S 11 kph)
- 10SM
17:00
Overcast
50°F / 10°C 46°F / 8°C 88% 30.12 in
(1020 mb)
S 6.9 mph
(S 11 kph)
- 10SM
16:53
Overcast
50°F / 10°C 46°F / 8°C 88% 30.12 in
(1020 mb)
SSE 6.9 mph
(SSE 11 kph)
- 10SM
15:53
Overcast
50°F / 10°C 48°F / 9°C 94% 30.09 in
(1019 mb)
S 8.1 mph
(S 13 kph)
- 10SM
14:53
Overcast
50°F / 10°C 48°F / 9°C 94% 30.09 in
(1019 mb)
S 8.1 mph
(S 13 kph)
0.00 in
(0.00 mm)
8SM
14:32
Overcast
50°F / 10°C 48°F / 9°C 94% 30.09 in
(1019 mb)
SSE 8.1 mph
(SSE 13 kph)
0.00 in
(0.00 mm)
8SM
13:53
Overcast
Light Rain
50°F / 10°C 46°F / 8°C 88% 30.09 in
(1019 mb)
SSE 8.1 mph
(SSE 13 kph)
0.02 in
(0.51 mm)
3SM
13:50
Overcast
Light Rain
50°F / 10°C 46°F / 8°C 88% 30.09 in
(1019 mb)
S 6.9 mph
(S 11 kph)
0.02 in
(0.51 mm)
3SM
12:53
Overcast
Light Rain
50°F / 10°C 46°F / 8°C 88% 30.06 in
(1018 mb)
SSE 5.8 mph
(SSE 9 kph)
0.01 in
(0.25 mm)
4SM
11:53
Overcast
Light Rain
52°F / 11°C 46°F / 8°C 82% 30.06 in
(1018 mb)
S 6.9 mph
(S 11 kph)
0.00 in
(0.00 mm)
7SM
11:29
Overcast
52°F / 11°C 46°F / 8°C 82% 30.06 in
(1018 mb)
S 11.5 mph
(S 19 kph)
- 10SM
10:53
Overcast
52°F / 11°C 46°F / 8°C 82% 30.06 in
(1018 mb)
S 10.4 mph
(S 17 kph)
- 10SM
09:53
Overcast
50°F / 10°C 46°F / 8°C 88% 30.04 in
(1017 mb)
S 11.5 mph
(S 19 kph)
- 10SM
08:53
Mostly Cloudy
50°F / 10°C 46°F / 8°C 88% 30.04 in
(1017 mb)
S 10.4 mph
(S 17 kph)
- 10SM
07:53
Overcast
50°F / 10°C 46°F / 8°C 88% 30.01 in
(1016 mb)
S 8.1 mph
(S 13 kph)
- 10SM
06:53
Overcast
48°F / 9°C 46°F / 8°C 94% 30.01 in
(1016 mb)
S 8.1 mph
(S 13 kph)
- 10SM
05:53
Overcast
45°F / 7°C 43°F / 6°C 93% 29.98 in
(1015 mb)
Calm - 7SM
05:31
Overcast
45°F / 7°C 43°F / 6°C 93% 29.98 in
(1015 mb)
Calm - 7SM
04:53
Overcast
Fog And Mist
45°F / 7°C 43°F / 6°C 93% 29.98 in
(1015 mb)
Calm - 5SM
04:50
Overcast
Fog And Mist
45°F / 7°C 43°F / 6°C 93% 29.98 in
(1015 mb)
ENE 3.5 mph
(ENE 6 kph)
- 5SM
03:53
Overcast
Fog And Mist
45°F / 7°C 43°F / 6°C 93% 29.98 in
(1015 mb)
N 3.5 mph
(N 6 kph)
- 4SM
03:48
Overcast
Fog And Mist
45°F / 7°C 43°F / 6°C 93% 29.98 in
(1015 mb)
Calm - 3SM
03:19
Overcast
Fog And Mist
45°F / 7°C 43°F / 6°C 93% 29.98 in
(1015 mb)
Calm - 3SM
03:11
Overcast
Fog And Mist
45°F / 7°C 43°F / 6°C 93% 29.98 in
(1015 mb)
Calm - 2 1/2SM
03:04
Overcast
Fog And Mist
45°F / 7°C 43°F / 6°C 93% 29.98 in
(1015 mb)
Calm - 1 3/4SM
02:53
Overcast
Fog And Mist
45°F / 7°C 43°F / 6°C 93% 29.98 in
(1015 mb)
Calm - 3/4SM
02:50
Overcast
Fog And Mist
45°F / 7°C 43°F / 6°C 93% 29.98 in
(1015 mb)
Calm - 3/4SM
02:41
Overcast
Fog
45°F / 7°C 43°F / 6°C 93% 29.98 in
(1015 mb)
Calm - 1/2SM
02:22
Overcast
Fog
45°F / 7°C 43°F / 6°C 93% 29.98 in
(1015 mb)
Calm - 1/2SM
02:15
Overcast
Fog And Mist
45°F / 7°C 43°F / 6°C 93% 29.98 in
(1015 mb)
Calm - 1 3/4SM
02:03
Overcast
Fog And Mist
45°F / 7°C 45°F / 7°C 100% 29.98 in
(1015 mb)
Calm - 3SM
01:58
Overcast
Fog And Mist
45°F / 7°C 43°F / 6°C 93% 29.98 in
(1015 mb)
Calm - 1SM
01:53
Obscured
Fog
45°F / 7°C 43°F / 6°C 93% 29.98 in
(1015 mb)
NE 3.5 mph
(NE 6 kph)
- 1/2SM
01:44
Obscured
Fog
45°F / 7°C 43°F / 6°C 93% 29.98 in
(1015 mb)
Calm - 1/4SM
01:34
Obscured
Fog
45°F / 7°C 43°F / 6°C 93% 29.98 in
(1015 mb)
Calm - 1/4SM
01:17
Obscured
Fog
46°F / 8°C 45°F / 7°C 93% 29.98 in
(1015 mb)
Calm - 1/4SM
00:53
Obscured
Fog
45°F / 7°C 45°F / 7°C 100% 29.95 in
(1014 mb)
E 3.5 mph
(E 6 kph)
- 1/4SM
00:19
Obscured
Fog
45°F / 7°C 45°F / 7°C 100% 29.95 in
(1014 mb)
S 3.5 mph
(S 6 kph)
- 1/4SM
Time Weather Temperature Dewpoint Humidity Pressure Winds Precip Visibility


Weather for websites

WeatherForYou.com, LLC is not responsible for any damages or problems caused by this service. Current weather conditions are obtained from the closest station including government and personal stations which may have varying degrees of accuracy. Weather forecasts are derived from the NOAA NDFD. Like all things, this site belongs to Jesus Christ... He just trusts me to maintain it. If you have any questions or comments email webmaster@weatherforyou.com

Copyright © 2015, WeatherForYou.com LLC. All rights reserved.